Wind_Speed
40 39 38 37 37 36 35 34 33 30 30 32 32 30 30 30 31 32 33 35 37 39 41 43 45 46 46 47 49 49 48 47 47 48 48 47 47 46 47 48 49 49 49 50
42 42 42 41 40 41 41 41 40 39 38 40 36 35 35 35 35 35 37 39 41 43 46 49 50 47 46 47 47 47 47 48 49 50 49 46 45 46 47 47 47 48 49 51
41 42 43 43 44 45 45 47 48 47 47 47 44 44 43 43 42 43 45 47 49 51 52 51 47 46 46 44 45 47 49 51 51 49 45 44 45 46 46 46 47 49 51 52
39 39 40 42 42 42 44 48 50 51 51 51 51 49 49 49 49 49 50 51 51 50 49 45 43 44 44 45 48 50 52 52 48 43 43 44 45 45 45 47 48 50 51 52
36 37 39 41 39 39 39 43 44 47 50 52 52 51 51 51 50 49 48 47 45 44 42 41 41 43 45 48 51 52 50 45 41 41 42 43 43 44 46 48 49 49 49 49
34 36 38 40 39 38 38 40 39 40 41 43 44 45 45 45 45 44 43 42 41 40 39 40 40 42 46 49 49 45 40 38 39 40 41 41 42 45 46 47 47 47 48 48
32 34 36 37 36 37 35 36 36 37 38 39 40 42 42 42 42 42 40 39 37 35 35 38 41 43 45 44 40 36 35 35 37 38 39 41 43 45 45 46 46 47 47 46
28 30 34 33 33 33 32 31 31 32 32 33 34 35 36 37 36 34 32 30 28 29 34 39 40 39 37 34 32 32 32 33 34 37 39 41 43 44 44 45 45 45 44 41
28 31 33 33 32 32 30 28 27 27 27 27 27 27 27 27 27 25 24 23 25 29 34 35 34 32 30 29 29 29 30 32 35 37 40 41 42 43 44 44 43 41 38 35
29 31 33 34 34 33 31 29 27 26 25 24 23 21 20 20 20 21 22 23 25 27 29 30 29 28 27 26 26 27 30 33 36 38 39 40 42 43 43 41 38 34 31 30
29 32 33 34 34 33 31 29 25 23 22 20 19 18 17 17 18 19 21 23 25 27 27 25 24 22 22 23 25 28 31 34 36 38 39 41 41 41 39 34 29 27 27 26
23 25 25 26 26 24 22 20 18 17 16 16 16 15 14 14 15 17 20 23 24 23 20 18 17 18 19 23 26 29 32 34 37 39 40 40 39 36 31 26 23 24 24 22
14 15 15 14 13 11 11 12 13 14 14 14 14 14 14 15 16 18 18 18 17 14 13 12 13 17 21 24 27 30 33 35 38 39 39 37 34 29 24 20 20 21 21 18
10 9 7 6 6 7 7 8 9 9 10 11 12 14 13 13 13 13 12 10 8 7 8 11 15 18 22 25 28 31 34 36 37 37 35 30 25 21 18 18 19 19 18 15
2 4 5 6 7 8 8 8 8 8 8 7 8 8 6 5 5 5 4 3 3 5 9 13 17 20 24 27 30 33 35 35 34 31 27 22 19 17 16 17 17 17 16 13
7 9 10 10 9 9 9 9 9 9 8 8 7 5 4 2 2 1 1 2 4 8 12 16 20 23 26 29 31 32 32 30 27 24 20 18 17 17 17 16 16 15 13 12
11 12 12 11 10 10 10 10 10 10 9 8 6 4 3 2 3 4 4 5 8 11 15 19 22 25 28 29 29 28 26 24 21 20 19 18 18 18 18 16 14 11 10 9
13 12 11 10 10 9 9 9 9 8 7 6 4 4 4 6 7 7 7 8 11 15 18 21 24 26 27 27 25 24 22 21 20 19 19 19 19 19 18 16 14 10 8 9
14 13 11 9 8 8 8 8 8 8 7 6 6 6 8 9 9 8 9 11 13 16 19 22 24 25 25 24 23 21 20 19 19 19 19 19 19 19 18 16 14 12 11 10
15 14 12 11 10 9 9 9 9 8 8 8 8 9 10 10 10 10 11 12 15 18 21 22 23 23 24 23 22 21 20 19 19 20 20 20 20 19 17 16 16 15 15 14
15 13 12 11 10 10 10 10 9 9 9 9 9 10 11 11 10 10 11 13 16 19 20 21 23 25 26 25 24 22 21 20 20 20 21 21 20 19 18 17 17 18 19 19
16 13 11 11 11 11 10 10 10 10 9 10 11 12 13 12 11 11 12 15 17 19 20 22 25 27 28 27 26 25 24 23 22 22 22 22 22 21 19 18 19 19 20 20
18 15 13 12 12 11 11 11 11 10 10 11 13 14 15 13 11 12 13 15 17 19 21 24 27 29 30 30 30 29 28 27 27 26 26 26 25 24 22 21 20 20 21 21
19 17 15 14 13 12 12 12 11 11 11 12 14 15 14 12 11 12 14 16 17 19 22 25 29 31 33 34 33 32 32 31 31 31 31 31 30 29 28 26 24 22 21 21
20 19 17 16 14 14 13 12 11 11 10 12 15 16 14 12 11 12 14 15 17 20 23 27 30 32 34 35 35 35 34 34 33 34 34 34 35 35 34 32 30 28 26 24
21 20 19 18 16 15 14 13 12 11 11 12 15 17 15 12 11 12 13 15 17 19 23 27 30 33 34 36 37 37 37 36 36 35 35 35 36 37 37 37 36 35 33 31
21 21 20 19 18 16 15 14 13 12 12 14 17 18 16 13 11 12 13 14 16 18 22 26 29 31 33 35 36 37 38 38 39 38 38 38 38 38 38 39 39 39 38 37
Wind_Direction
255 255 257 260 261 262 261 261 264 266 271 273 275 275 274 274 276 278 280 282 282 284 287 289 291 293 294 297 301 303 304 304 302 299 298 297 297 298 300 300 301 300 300 300
255 257 258 259 262 265 266 268 269 270 272 271 274 276 277 277 278 280 282 285 288 291 293 294 295 294 296 299 300 300 299 298 297 295 295 297 298 300 302 303 304 304 305 306
255 256 258 259 259 261 264 265 267 267 267 273 275 276 277 278 279 280 282 286 290 293 294 294 293 293 294 294 292 293 292 291 290 291 295 299 301 303 305 306 307 308 310 311
256 257 259 259 261 262 262 262 264 265 267 269 270 272 273 275 276 278 281 284 287 288 289 289 287 288 287 287 287 287 286 286 290 295 299 301 303 306 308 309 311 313 313 313
257 260 262 263 264 264 263 263 264 264 266 267 269 270 272 274 276 278 280 282 283 285 284 280 279 280 278 281 282 283 284 289 295 299 301 304 307 309 311 313 314 314 314 315
259 262 264 265 267 267 267 267 267 267 267 268 269 271 272 274 276 277 278 279 280 280 279 274 272 272 273 276 279 283 289 296 300 302 304 308 310 312 314 314 314 314 315 317
261 263 265 268 270 270 270 269 270 269 268 268 268 269 271 272 273 274 275 276 276 276 273 267 264 267 272 277 284 292 298 300 302 306 309 312 314 314 314 314 314 315 317 318
259 261 264 268 269 269 271 272 272 271 271 269 268 267 267 268 269 271 272 272 271 267 262 260 263 272 281 290 296 299 301 304 308 311 314 315 315 314 314 315 317 318 319 319
261 264 267 268 269 270 271 271 271 271 271 270 267 264 263 264 266 266 267 265 263 261 262 268 279 289 295 298 301 304 308 311 314 315 316 315 315 316 317 318 318 319 320 321
268 269 269 269 268 268 268 268 269 268 267 264 261 259 259 260 260 259 258 258 261 267 274 281 288 293 297 301 306 311 314 316 316 316 315 316 317 318 319 320 321 322 323 325
273 272 271 270 268 266 265 265 264 262 257 253 250 249 250 251 251 253 254 260 268 276 280 284 288 293 301 308 314 317 318 317 316 316 316 318 319 321 322 324 325 326 327 327
275 274 274 271 268 263 257 253 251 247 241 237 236 239 243 245 249 257 264 271 274 276 281 286 293 304 313 319 321 320 318 318 318 318 319 320 322 324 327 329 330 331 330 329
276 275 274 269 260 246 234 231 231 228 224 223 224 231 241 251 258 263 269 273 273 278 285 297 311 322 325 325 323 322 321 321 321 321 323 325 327 329 332 334 335 335 335 335
276 266 252 235 214 200 198 203 203 202 208 215 223 230 239 250 260 267 269 271 278 291 310 326 332 332 330 329 328 327 326 325 325 327 329 332 334 336 338 339 341 343 345 347
247 194 171 161 167 168 167 166 166 169 176 188 205 215 223 234 248 256 263 275 309 336 343 343 341 339 338 336 334 331 330 331 332 336 339 343 345 346 346 344 345 350 354 359
131 137 139 141 142 143 147 151 150 150 149 150 153 157 165 182 202 196 138 57 19 5 357 353 349 346 343 340 338 336 337 339 344 350 355 358 357 354 351 349 349 353 1 8
136 134 131 127 128 131 135 139 143 144 145 146 146 148 151 147 132 118 95 57 28 14 4 358 353 350 347 344 343 344 348 354 1 6 7 5 1 358 356 355 355 359 10 19
148 144 139 129 119 122 131 139 146 148 147 146 143 135 129 123 118 107 80 49 28 15 6 0 357 354 350 349 351 357 3 8 11 11 9 7 5 3 4 6 12 21 27 30
163 157 148 133 117 116 128 139 143 143 140 136 128 123 122 120 112 93 66 45 28 16 9 5 1 358 358 360 3 7 11 14 14 14 13 13 12 14 18 25 34 42 43 44
167 156 144 128 117 116 125 133 136 135 130 123 119 118 120 117 105 84 61 43 29 20 14 10 7 8 10 13 14 15 18 19 21 21 21 21 23 27 34 41 47 51 54 61
175 166 150 137 130 129 131 134 134 130 123 118 119 121 123 118 102 80 61 45 34 26 21 19 19 21 23 24 25 26 27 28 29 30 30 31 33 38 45 51 55 58 62 68
193 186 171 155 146 144 144 143 138 129 120 118 122 127 127 118 99 79 63 50 41 34 32 31 32 32 33 34 36 37 37 38 39 40 40 40 43 47 52 56 59 62 66 72
204 200 188 172 163 159 156 151 142 129 122 122 127 131 130 118 100 82 66 56 48 44 43 43 42 42 42 43 44 45 46 47 48 49 49 49 51 54 57 60 62 64 68 73
208 205 198 188 178 172 167 159 146 134 127 128 132 135 132 119 102 87 74 63 56 54 54 54 52 51 50 50 50 50 52 53 54 55 56 56 57 59 61 63 65 67 69 71
208 207 203 196 187 180 173 164 153 141 136 137 140 141 137 126 110 95 81 71 66 64 64 63 60 58 56 55 55 55 55 56 58 59 60 61 62 62 63 64 66 68 70 72
207 207 204 199 194 188 182 174 165 155 150 150 151 151 147 137 121 105 91 81 75 74 72 70 67 65 63 62 60 59 59 59 60 61 62 63 64 65 65 66 66 67 69 70
205 205 204 202 199 197 193 187 179 172 166 163 162 160 156 147 132 117 103 92 86 83 80 76 73 71 69 68 66 65 64 63 63 64 65 66 67 67 67 68 68 68 68 68
Height
5742 5745 5747 5748 5750 5751 5753 5754 5755 5755 5754 5753 5752 5753 5753 5753 5753 5753 5752 5751 5749 5747 5745 5742 5738 5734 5730 5726 5722 5717 5712 5707 5702 5697 5692 5686 5680 5674 5668 5662 5655 5647 5640 5633
5732 5735 5736 5738 5741 5741 5742 5743 5744 5745 5745 5742 5744 5744 5744 5744 5744 5744 5743 5741 5739 5737 5734 5730 5726 5722 5718 5713 5709 5704 5700 5695 5690 5685 5680 5674 5669 5663 5656 5649 5642 5634 5627 5619
5722 5724 5725 5728 5730 5730 5732 5732 5732 5733 5733 5731 5734 5734 5734 5734 5734 5733 5732 5730 5728 5726 5722 5718 5714 5710 5706 5702 5698 5694 5690 5685 5679 5674 5669 5663 5658 5651 5644 5637 5630 5622 5613 5605
5712 5714 5716 5717 5717 5720 5721 5719 5720 5720 5720 5721 5722 5723 5723 5723 5722 5721 5720 5719 5717 5714 5711 5707 5703 5700 5695 5692 5688 5684 5679 5674 5668 5663 5658 5652 5646 5639 5632 5625 5617 5609 5601 5592
5703 5703 5704 5704 5706 5708 5708 5707 5708 5708 5708 5709 5709 5710 5710 5709 5709 5709 5708 5707 5705 5703 5700 5696 5693 5690 5686 5682 5678 5674 5668 5663 5658 5653 5647 5641 5635 5628 5621 5613 5606 5598 5591 5582
5692 5693 5694 5694 5696 5696 5697 5696 5697 5697 5697 5697 5697 5697 5697 5697 5696 5696 5696 5695 5694 5692 5690 5687 5683 5680 5676 5672 5668 5663 5658 5653 5648 5643 5637 5631 5624 5617 5610 5602 5595 5588 5581 5573
5682 5683 5683 5684 5685 5685 5687 5686 5686 5686 5686 5687 5687 5686 5686 5685 5685 5685 5685 5684 5683 5682 5681 5678 5674 5671 5667 5663 5659 5654 5649 5644 5639 5633 5627 5621 5614 5607 5600 5593 5586 5579 5571 5564
5673 5674 5675 5675 5674 5675 5675 5675 5674 5674 5675 5675 5675 5675 5675 5674 5674 5675 5675 5675 5674 5673 5671 5668 5665 5661 5658 5654 5650 5646 5641 5636 5630 5624 5618 5611 5605 5598 5591 5584 5576 5569 5562 5554
5666 5666 5665 5664 5664 5665 5665 5666 5665 5665 5665 5666 5666 5666 5667 5667 5667 5667 5667 5668 5667 5666 5663 5661 5657 5654 5651 5647 5643 5638 5633 5628 5622 5616 5609 5603 5596 5589 5582 5574 5567 5560 5553 5546
5655 5655 5654 5654 5654 5655 5656 5657 5657 5658 5658 5658 5659 5660 5661 5661 5661 5661 5662 5662 5661 5659 5657 5655 5652 5648 5645 5641 5636 5631 5626 5620 5615 5608 5602 5595 5588 5581 5573 5566 5559 5552 5546 5540
5645 5644 5644 5643 5643 5644 5646 5647 5648 5649 5651 5652 5653 5655 5655 5656 5656 5656 5656 5656 5655 5654 5652 5650 5647 5643 5639 5635 5630 5625 5620 5614 5608 5601 5594 5587 5580 5572 5565 5558 5552 5546 5541 5536
5637 5635 5634 5634 5633 5634 5636 5639 5641 5643 5644 5646 5648 5650 5651 5652 5652 5653 5652 5652 5650 5649 5647 5645 5642 5638 5634 5630 5625 5620 5614 5608 5601 5594 5587 5579 5571 5564 5557 5552 5547 5542 5537 5532
5630 5629 5627 5627 5627 5629 5631 5634 5636 5638 5640 5642 5644 5646 5647 5648 5649 5649 5648 5648 5647 5645 5644 5641 5638 5634 5630 5626 5621 5615 5608 5601 5594 5586 5578 5570 5563 5557 5552 5548 5544 5539 5534 5530
5626 5624 5624 5625 5626 5627 5629 5631 5633 5636 5638 5640 5642 5643 5645 5646 5646 5646 5646 5645 5644 5643 5641 5639 5635 5631 5627 5622 5616 5609 5602 5595 5587 5578 5570 5564 5558 5553 5549 5545 5541 5536 5532 5528
5623 5623 5624 5625 5626 5628 5630 5632 5634 5636 5638 5639 5641 5642 5644 5644 5645 5645 5645 5644 5643 5642 5640 5637 5633 5629 5623 5617 5611 5604 5596 5588 5580 5572 5566 5560 5555 5551 5547 5543 5539 5534 5531 5527
5624 5625 5626 5628 5629 5631 5632 5634 5636 5637 5639 5640 5642 5643 5643 5644 5645 5645 5645 5644 5644 5642 5639 5635 5631 5626 5620 5613 5606 5599 5591 5583 5576 5569 5564 5559 5554 5550 5546 5541 5537 5533 5530 5527
5627 5628 5629 5631 5632 5634 5635 5636 5638 5639 5640 5642 5643 5644 5644 5645 5645 5646 5646 5646 5644 5642 5638 5634 5629 5623 5617 5610 5603 5595 5588 5581 5574 5569 5564 5559 5554 5549 5545 5540 5536 5533 5530 5528
5630 5631 5633 5634 5636 5637 5638 5639 5640 5641 5642 5644 5645 5645 5646 5646 5647 5647 5647 5646 5644 5641 5638 5633 5628 5622 5615 5608 5601 5593 5587 5580 5575 5570 5564 5559 5554 5549 5544 5540 5536 5533 5531 5529
5631 5633 5635 5637 5638 5639 5640 5641 5642 5643 5645 5646 5646 5647 5647 5648 5649 5649 5648 5647 5645 5642 5638 5633 5628 5621 5614 5607 5600 5593 5587 5581 5576 5571 5566 5560 5555 5550 5545 5541 5537 5535 5532 5530
5633 5635 5637 5638 5640 5641 5642 5643 5644 5646 5646 5647 5647 5648 5649 5650 5651 5651 5650 5649 5646 5643 5639 5634 5628 5621 5614 5607 5600 5594 5588 5583 5578 5573 5568 5562 5557 5553 5548 5545 5541 5538 5535 5533
5634 5636 5638 5640 5642 5643 5644 5646 5647 5647 5648 5648 5649 5649 5651 5652 5653 5653 5652 5651 5648 5645 5640 5635 5629 5622 5615 5608 5602 5596 5590 5585 5580 5575 5571 5566 5561 5556 5552 5549 5546 5543 5540 5538
5634 5637 5639 5641 5643 5644 5646 5647 5648 5649 5649 5649 5650 5651 5653 5654 5655 5655 5655 5653 5650 5647 5643 5638 5631 5625 5618 5612 5605 5599 5593 5588 5584 5579 5574 5570 5565 5561 5557 5554 5551 5548 5546 5544
5633 5636 5639 5641 5643 5645 5647 5648 5649 5649 5650 5650 5652 5653 5655 5657 5657 5657 5657 5656 5653 5650 5646 5641 5635 5629 5623 5616 5610 5604 5599 5594 5589 5584 5580 5575 5570 5566 5563 5559 5557 5554 5552 5550
5632 5635 5638 5640 5642 5645 5646 5648 5649 5650 5651 5652 5653 5656 5658 5659 5660 5660 5659 5658 5656 5654 5650 5645 5640 5634 5629 5623 5617 5611 5606 5601 5597 5592 5587 5583 5578 5573 5569 5566 5563 5561 5559 5557
5630 5633 5636 5639 5641 5644 5646 5647 5648 5650 5651 5653 5655 5657 5660 5661 5662 5662 5662 5661 5660 5658 5655 5651 5646 5641 5636 5630 5625 5620 5615 5610 5605 5601 5596 5592 5587 5583 5578 5575 5571 5569 5567 5565
5627 5631 5634 5637 5639 5642 5644 5646 5648 5649 5651 5654 5656 5659 5661 5663 5664 5664 5665 5665 5664 5662 5660 5656 5652 5648 5644 5639 5634 5629 5625 5620 5615 5611 5607 5602 5598 5593 5589 5586 5582 5579 5576 5573
5624 5628 5631 5634 5637 5640 5642 5644 5647 5649 5651 5654 5657 5660 5662 5664 5666 5667 5667 5668 5668 5667 5665 5661 5658 5655 5652 5648 5644 5640 5635 5631 5626 5622 5617 5613 5609 5605 5601 5598 5594 5590 5587 5584